Satellite-Ground Cal/Val Site Overpasses Predictions

Prediction of Satellite NPP Overpassing Cal/Val Site: Antarctic Dome C

Ground Cal/Val Site Location: Latitude: -75.10, Longitude: 123.35; Satellite-Ground Site NADIR distance within 100 km.

Table of predicted overpasses for the next 14.0 days since TLE Epoch: 9/4/2020
Interval Starting Time Ending Time Minimum Distance Time Minimum Distance (km)
1 09/05/2020 07:19:06 09/05/2020 07:19:25 09/05/2020 07:19:16 75.87
2 09/07/2020 15:01:21 09/07/2020 15:01:45 09/07/2020 15:01:33 58.98
3 09/08/2020 14:42:32 09/08/2020 14:42:57 09/08/2020 14:42:44 50.21
4 09/09/2020 07:44:12 09/09/2020 07:44:33 09/09/2020 07:44:23 69.50
5 09/10/2020 07:25:21 09/10/2020 07:25:48 09/10/2020 07:25:34 38.46
6 09/12/2020 15:07:49 09/12/2020 15:07:55 09/12/2020 15:07:52 96.75
7 09/13/2020 14:48:47 09/13/2020 14:49:16 09/13/2020 14:49:02 14.44
8 09/15/2020 07:31:38 09/15/2020 07:32:08 09/15/2020 07:31:53 1.84
